Location: Newark
(56.0692°N, 115.8617°E)
Time: 11:22:19
(UTC+00:00)

Vanguard 2 Rocket - Pass Details

Date: 31 May 2020
Orbit: 556 x 3325 km, 32.9° (Epoch: 14 July)

Event Time Altitude Azimuth Distance (km) Brightness Sun altitude
Rises 09:17:43 0° 236° (SW) 4,538 11.3 25.9°
Reaches altitude 10° 09:21:06 10° 222° (SW) 3,945 10.8 25.5°
Maximum altitude 09:29:14 24° 174° (S) 3,757 10.1 24.3°
Drops below altitude 10° 09:40:38 10° 130° (SE) 5,693 10.6 22.8°
Sets 09:46:59 0° 120° (ESE) 7,046 10.9 21.9°
